Flag for Germany Weather past 2 weeks in Ehingen (Donau), Baden-Württemberg, Germany

Now
39 °F

Partly sunny.


Feels Like: 34 °F
Forecast: 32 / 43 °F
Wind: 8 mph from Southwest

Location: Laupheim Airport

Current Time: Dec 21, 2014 at 11:59:53 AM

Latest Report: Dec 21, 2014 at 11:20 AM


Visibility: N/A

Pressure: 30.51 "Hg

Humidity: 81%

Dew point: 34 °F

Location of Ehingen (Donau)Location

Historic Weather in Ehingen (Donau) — Graph

°F

Ehingen (Donau) temperature yesterday

Maximum temperature yesterday: 46 °F (at 12:20 AM)
Minimum temperature yesterday: 37 °F (at 9:20 AM)
Average temperature yesterday: 40 °F

Past Weeks' High & Low Weather Summary

 TemperatureHumidityPressure
High52 °F (Dec 18, 11:20 PM)100% (Dec 6, 10:20 AM)30.51 "Hg (Dec 6, 10:20 AM)
Low30 °F (Dec 9, 6:20 AM)57% (Dec 12, 1:20 PM)29.77 "Hg (Dec 12, 8:20 PM)
Average40 °F86%30.08 "Hg
* Reported Dec 6 10:20 AM — Dec 21 10:20 AM, Ehingen (Donau), Weather by CustomWeather, © 2014

Note: Actual official high and low records may vary slightly from our data, if they occured in-between our weather recording intervals... More about our weather records

Advertising

Ehingen (Donau) weather history for previous 24 hours

 ConditionsComfort  
Time TempWeatherWind HumidityBarometerVisibility
10:20 AM
Dec 21
37 °FScattered clouds.10 mph87%30.51 "HgN/A
9:20 AM36 °FScattered clouds.10 mph87%30.48 "HgN/A
8:20 AM34 °FScattered clouds.10 mph93%30.48 "HgN/A
7:20 AM34 °FPassing clouds.6 mph93%30.48 "HgN/A
6:20 AM36 °FPassing clouds.7 mph87%30.48 "HgN/A
5:20 AM36 °FPassing clouds.12 mph93%30.45 "HgN/A
4:20 AM36 °FPassing clouds.15 mph93%30.45 "HgN/A
3:20 AM37 °FPassing clouds.15 mph87%30.42 "HgN/A
2:20 AM37 °FPartly cloudy.15 mph87%30.42 "HgN/A
1:20 AM37 °FPassing clouds.15 mph87%30.39 "HgN/A
12:20 AM37 °FPartly cloudy.14 mph87%30.39 "HgN/A
11:20 PM
Dec 20
37 °FLight rain. Partly cloudy.16 mph87%30.36 "HgN/A
10:20 PM37 °FPassing clouds.15 mph87%30.36 "HgN/A
9:49 PM37 °FRain. Passing clouds.22 mph87%30.36 "Hg4 mi
9:20 PM39 °FPartly cloudy.18 mph75%30.33 "HgN/A
8:20 PM39 °FPassing clouds.20 mph70%30.30 "HgN/A
7:20 PM39 °FPartly cloudy.20 mph65%30.24 "HgN/A
6:20 PM39 °FPartly cloudy.21 mph70%30.24 "HgN/A
5:20 PM41 °FPassing clouds.21 mph66%30.21 "HgN/A
4:20 PM41 °FPartly sunny.21 mph66%30.24 "HgN/A
3:20 PM41 °FBroken clouds.16 mph66%30.21 "HgN/A
2:20 PM41 °FBroken clouds.14 mph70%30.24 "HgN/A
1:20 PM41 °FBroken clouds.16 mph70%30.24 "HgN/A
12:20 PM41 °FBroken clouds.15 mph70%30.27 "HgN/A
11:20 AM41 °FBroken clouds.17 mph70%30.30 "HgN/A
Weather by CustomWeather, © 2014

See weather overviewHow to use our weather pages